When you browse on this site, cookies collect data to enhance your experience and personalize the content and advertising you see.
Visit our Privacy Policy to learn more. By continuing to use the site, you agree to this use of cookies and data.
  • In Czech Republic
  • List of Countries
  • For 7 days
  • Water Temperature
  • Weather Map
  • Weather Widgets
  • user-avatar
    Login

    Hourly Weather Santa Fe

    Today, 18 February, Tuesday

    Time Temperature Precipitation Wind Pressure Humidity
    00:00 +26°C° 0.3 mm 3 mps 753 mmHg 84%
    01:00 +23°C° 0.3 mm 4 mps 753 mmHg 85%
    02:00 +22°C° 0 mm 4 mps 754 mmHg 87%
    03:00 +22°C° 0 mm 5 mps 754 mmHg 83%
    04:00 +22°C° 0 mm 5 mps 755 mmHg 78%
    05:00 +22°C° 0 mm 6 mps 755 mmHg 73%
    06:00 +23°C° 0 mm 6 mps 756 mmHg 62%
    07:00 +24°C° 0 mm 6 mps 757 mmHg 51%
    08:00 +26°C° 0 mm 7 mps 757 mmHg 34%
    09:00 +27°C° 0 mm 7 mps 757 mmHg 29%
    10:00 +29°C° 0 mm 7 mps 758 mmHg 24%
    11:00 +30°C° 0 mm 6 mps 758 mmHg 19%
    12:00 +32°C° 0 mm 6 mps 758 mmHg 18%
    13:00 +33°C° 0 mm 6 mps 758 mmHg 17%
    14:00 +33°C° 0 mm 6 mps 758 mmHg 16%
    15:00 +33°C° 0 mm 6 mps 757 mmHg 17%
    16:00 +33°C° 0 mm 5 mps 757 mmHg 18%
    17:00 +32°C° 0 mm 4 mps 756 mmHg 19%
    18:00 +29°C° 0 mm 4 mps 756 mmHg 23%
    19:00 +27°C° 0 mm 3 mps 757 mmHg 26%
    20:00 +24°C° 0 mm 3 mps 757 mmHg 30%
    21:00 +23°C° 0 mm 2 mps 757 mmHg 31%
    22:00 +21°C° 0 mm 2 mps 757 mmHg 33%
    23:00 +21°C° 0 mm 2 mps 757 mmHg 34%

    Tomorrow, 19 February, Wednesday

    Time Temperature Precipitation Wind Pressure Humidity
    00:00 +21°C° 0 mm 1 mps 757 mmHg 36%
    01:00 +20°C° 0 mm 1 mps 757 mmHg 37%
    02:00 +18°C° 0 mm 0 mps 757 mmHg 39%
    03:00 +20°C° 0 mm 1 mps 757 mmHg 40%
    04:00 +19°C° 0 mm 1 mps 756 mmHg 41%
    05:00 +18°C° 0 mm 2 mps 756 mmHg 42%
    06:00 +20°C° 0 mm 2 mps 756 mmHg 40%
    07:00 +23°C° 0 mm 2 mps 757 mmHg 38%
    08:00 +25°C° 0 mm 2 mps 757 mmHg 36%
    09:00 +27°C° 0 mm 2 mps 757 mmHg 33%
    10:00 +29°C° 0 mm 2 mps 757 mmHg 29%
    11:00 +32°C° 0 mm 2 mps 756 mmHg 25%
    12:00 +34°C° 0 mm 2 mps 756 mmHg 23%
    13:00 +35°C° 0 mm 2 mps 755 mmHg 21%
    14:00 +35°C° 0 mm 1 mps 754 mmHg 19%
    15:00 +35°C° 0 mm 1 mps 754 mmHg 19%
    16:00 +35°C° 0 mm 1 mps 753 mmHg 20%
    17:00 +35°C° 0 mm 1 mps 753 mmHg 20%
    18:00 +34°C° 0 mm 2 mps 753 mmHg 25%
    19:00 +30°C° 0 mm 2 mps 754 mmHg 29%
    20:00 +27°C° 0 mm 2 mps 754 mmHg 34%
    21:00 +27°C° 0 mm 2 mps 754 mmHg 38%
    22:00 +26°C° 0 mm 1 mps 755 mmHg 41%
    23:00 +25°C° 0 mm 1 mps 755 mmHg 45%

    Day after tomorrow, 20 February, Thursday

    Time Temperature Precipitation Wind Pressure Humidity
    00:00 +24°C° 0 mm 1 mps 755 mmHg 46%
    01:00 +24°C° 0 mm 2 mps 755 mmHg 47%
    02:00 +23°C° 0 mm 2 mps 755 mmHg 48%
    03:00 +22°C° 0 mm 3 mps 756 mmHg 48%
    04:00 +21°C° 0 mm 4 mps 757 mmHg 49%
    05:00 +21°C° 0 mm 4 mps 758 mmHg 49%
    06:00 +21°C° 0 mm 5 mps 759 mmHg 48%
    07:00 +22°C° 0 mm 6 mps 760 mmHg 46%
    08:00 +22°C° 0 mm 7 mps 760 mmHg 45%
    09:00 +24°C° 0 mm 7 mps 761 mmHg 37%
    10:00 +27°C° 0 mm 7 mps 761 mmHg 29%
    11:00 +29°C° 0 mm 7 mps 762 mmHg 21%
    12:00 +30°C° 0 mm 7 mps 761 mmHg 20%
    13:00 +30°C° 0 mm 7 mps 761 mmHg 19%
    14:00 +32°C° 0 mm 7 mps 761 mmHg 17%
    15:00 +30°C° 0 mm 7 mps 760 mmHg 18%
    16:00 +30°C° 0 mm 7 mps 760 mmHg 18%
    17:00 +29°C° 0 mm 7 mps 760 mmHg 18%
    18:00 +27°C° 0 mm 5 mps 760 mmHg 22%
    19:00 +23°C° 0 mm 4 mps 761 mmHg 26%
    20:00 +21°C° 0 mm 3 mps 761 mmHg 30%
    21:00 +20°C° 0 mm 3 mps 762 mmHg 33%
    22:00 +19°C° 0 mm 2 mps 762 mmHg 36%
    23:00 +19°C° 0 mm 2 mps 763 mmHg 39%

    21 February, Friday

    Time Temperature Precipitation Wind Pressure Humidity
    00:00 +18°C° 0 mm 2 mps 763 mmHg 41%
    01:00 +18°C° 0 mm 2 mps 763 mmHg 42%
    02:00 +17°C° 0 mm 2 mps 764 mmHg 43%
    09:00 +22°C° 0 mm 3 mps 765 mmHg 35%
    10:00 +25°C° 0 mm 4 mps 765 mmHg 29%
    11:00 +27°C° 0 mm 4 mps 765 mmHg 24%
    12:00 +28°C° 0 mm 5 mps 764 mmHg 22%
    13:00 +29°C° 0 mm 5 mps 764 mmHg 21%
    14:00 +30°C° 0 mm 6 mps 763 mmHg 19%
    15:00 +29°C° 0 mm 6 mps 763 mmHg 20%
    16:00 +29°C° 0 mm 6 mps 762 mmHg 21%
    17:00 +28°C° 0 mm 5 mps 762 mmHg 22%
    18:00 +26°C° 0 mm 5 mps 762 mmHg 27%
    19:00 +23°C° 0 mm 4 mps 762 mmHg 32%
    20:00 +20°C° 0 mm 3 mps 763 mmHg 37%
    21:00 +20°C° 0 mm 3 mps 763 mmHg 39%
    22:00 +19°C° 0 mm 2 mps 764 mmHg 41%
    23:00 +18°C° 0 mm 2 mps 764 mmHg 43%

    22 February, Saturday

    Time Temperature Precipitation Wind Pressure Humidity
    00:00 +17°C° 0 mm 2 mps 764 mmHg 45%
    01:00 +17°C° 0 mm 2 mps 764 mmHg 47%
    02:00 +16°C° 0 mm 2 mps 764 mmHg 49%
    03:00 +15°C° 0 mm 2 mps 764 mmHg 52%
    04:00 +15°C° 0 mm 2 mps 764 mmHg 54%
    05:00 +14°C° 0 mm 2 mps 764 mmHg 57%
    06:00 +16°C° 0 mm 2 mps 764 mmHg 53%
    07:00 +18°C° 0 mm 3 mps 765 mmHg 49%
    08:00 +19°C° 0 mm 3 mps 765 mmHg 45%
    09:00 +21°C° 0 mm 3 mps 765 mmHg 40%
    10:00 +25°C° 0 mm 3 mps 764 mmHg 34%
    11:00 +27°C° 0 mm 3 mps 764 mmHg 29%
    12:00 +28°C° 0 mm 3 mps 763 mmHg 26%
    13:00 +29°C° 0 mm 3 mps 762 mmHg 23%
    14:00 +30°C° 0 mm 3 mps 761 mmHg 20%
    15:00 +30°C° 0 mm 3 mps 761 mmHg 20%
    16:00 +30°C° 0 mm 3 mps 760 mmHg 19%
    17:00 +30°C° 0 mm 3 mps 759 mmHg 19%
    18:00 +28°C° 0 mm 3 mps 760 mmHg 23%
    19:00 +25°C° 0 mm 3 mps 760 mmHg 27%
    20:00 +22°C° 0 mm 3 mps 760 mmHg 31%
    21:00 +21°C° 0 mm 3 mps 760 mmHg 35%
    22:00 +20°C° 0 mm 3 mps 760 mmHg 39%
    23:00 +19°C° 0 mm 3 mps 761 mmHg 43%

    23 February, Sunday

    Time Temperature Precipitation Wind Pressure Humidity
    00:00 +18°C° 0 mm 3 mps 761 mmHg 46%
    01:00 +17°C° 0 mm 2 mps 760 mmHg 50%
    02:00 +17°C° 0 mm 2 mps 760 mmHg 53%
    03:00 +17°C° 0 mm 2 mps 760 mmHg 54%
    04:00 +16°C° 0 mm 2 mps 760 mmHg 55%
    05:00 +16°C° 0 mm 2 mps 760 mmHg 56%
    06:00 +18°C° 0 mm 2 mps 760 mmHg 51%
    07:00 +19°C° 0 mm 2 mps 760 mmHg 46%
    08:00 +21°C° 0 mm 2 mps 760 mmHg 41%
    09:00 +24°C° 0 mm 2 mps 760 mmHg 36%
    10:00 +27°C° 0 mm 2 mps 759 mmHg 31%
    11:00 +29°C° 0 mm 3 mps 759 mmHg 26%
    12:00 +30°C° 0 mm 3 mps 758 mmHg 24%
    13:00 +31°C° 0 mm 2 mps 757 mmHg 22%
    14:00 +32°C° 0 mm 2 mps 757 mmHg 21%
    15:00 +32°C° 0 mm 2 mps 756 mmHg 22%
    16:00 +32°C° 0 mm 2 mps 755 mmHg 23%
    17:00 +32°C° 0 mm 2 mps 754 mmHg 24%
    18:00 +30°C° 0 mm 2 mps 754 mmHg 29%
    19:00 +27°C° 0 mm 2 mps 755 mmHg 35%
    20:00 +25°C° 0 mm 2 mps 755 mmHg 40%
    21:00 +24°C° 0 mm 2 mps 755 mmHg 44%
    22:00 +22°C° 0 mm 3 mps 755 mmHg 47%
    23:00 +21°C° 0 mm 3 mps 755 mmHg 51%
    Show more